Погода в Вильнаве-д'Орноне

Франция     44°46′16″N   0°34′39″E
темп.,
°C
ветер,
м/с
пор.,
м/с
влажн.,
%
обл.,
%
осадки,
мм/ч
давл.,
гПа
погр.,
м
24 мая, вт
вт2423:00+15зюз61077100 0.1 10131002
02:00+13зюз38814 0.2 1013421
05:00+11юз36946 0.5 1013141
08:00+13зюз2686100 0.6 1013224
11:00+17з3559100 0.1 10131306
14:00+20з4540100 0.2 10132286
17:00+17з6652100 0.0 10141221
20:00+17зсз4552100 0.0 10141069
25 мая, ср
ср2523:00+13зсз247414 0.0 1017148
02:00+11зсз23825 0.0 101776
05:00+11ссз22875 0.0 101849
08:00+12с11792 0.0 1020126
11:00+18ссз3455100 0.1 10211561
14:00+21сз3442100 0.1 10212260
17:00+21сз4439100 0.0 10212143
20:00+18сз56523 0.0 10231054
26 мая, чт
чт2623:00+14сз36741 0.0 1026276
02:00+12зсз23840 0.0 102667
05:00+12зсз119032 0.0 102613
08:00+14ююв118553 0.0 1027113
11:00+17сз2270100 0.0 1027555
14:00+22с345037 0.0 10261486
17:00+24с444420 0.0 10251762
20:00+21с56590 0.0 1025825
27 мая, пт
пт2723:00+16ссз48790 0.0 1027276
02:00+14ссз38890 0.0 1026239
05:00+13ссз25921 0.0 1025139
08:00+15с24840 0.0 1026175
11:00+22с34582 0.0 1026886
14:00+26с44430 0.0 10241831
17:00+27с54395 0.0 10231900
20:00+24с57475 0.0 1022989
28 мая, сб
сб2823:00+17с36580 0.0 1024158
02:00+15ссв38760 0.0 1023175
05:00+14ссв26910 0.0 1022154
08:00+16ссв38800 0.0 1022274
11:00+22св56460 0.0 1021913
14:00+26св56290 0.0 10191490
17:00+28св56290 0.0 10171760
20:00+24ссв58370 0.0 1017864